Weather History for Big Bear City, CA

Change the Weather History Date:

Sunday, June 17, 2012

  Actual Average (KBUO) Record (KBUO)
Temperature  
Mean Temperature 60 °F -  
Max Temperature 78 °F 83 °F 96 °F (1997)
Min Temperature 41 °F 54 °F 53 °F (1998)
Degree Days  
Heating Degree Days 6    
Growing Degree Days 10 (Base 50)    
Moisture  
Dew Point 22 °F    
Average Humidity 22    
Maximum Humidity 38    
Minimum Humidity 12    
Precipitation  
Precipitation 0.00 in - - ()
Sea Level Pressure  
Sea Level Pressure 30.24 in    
Wind  
Wind Speed 5 mph (SSW)    
Max Wind Speed 15 mph    
Max Gust Speed 23 mph    
Visibility 10 miles    
Events      
Averages and records for this station are not official NWS values.
T = Trace of Precipitation, MM = Missing Value Source: NWS Daily Summary

Daily Weather History Graph

Daily Weather History Graph

Search for Another Location

Airport:

Trip Planner

Search our weather history database for the weather conditions in past years. The results will help you decide how hot, cold, wet, or windy it might be!

Date:

Astronomy

Jun. 17, 2012 Rise Set
Actual Time 5:35 AM PDT 8:01 PM PDT
Civil Twilight 5:05 AM PDT 8:31 PM PDT
Nautical Twilight 4:29 AM PDT 9:07 PM PDT
Astronomical Twilight 3:50 AM PDT 9:47 PM PDT
Moon 4:05 AM PDT (6/17) 6:35 PM PDT (6/17)
Length of Visible Light 15h 25m
Length of Day
14h 26m
Waning Crescent, 3% of the Moon is Illuminated
Jun 17
Waning Crescent
Jun 19
New
Jun 26
First Quarter
Jul 3
Full
Jul 10
Last Quarter

Hourly Weather History & Observations

Time (PDT) Temp. Windchill Dew Point Humidity Pressure Visibility Wind Dir Wind Speed Gust Speed Precip Events Conditions
12:15 AM 44.6 °F 40.7 °F 14.0 °F 29% 30.23 in 10.0 mi West 6.9 mph - N/A   Clear
12:35 AM 44.6 °F 40.7 °F 17.6 °F 34% 30.22 in 10.0 mi WSW 6.9 mph - N/A   Clear
12:55 AM 44.6 °F 40.7 °F 17.6 °F 34% 30.22 in 10.0 mi West 6.9 mph - N/A   Clear
1:15 AM 42.8 °F - 10.4 °F 27% 30.22 in 10.0 mi Calm Calm - N/A   Clear
1:35 AM 42.8 °F - 12.2 °F 29% 30.22 in 10.0 mi Calm Calm - N/A   Clear
1:55 AM 44.6 °F - 15.8 °F 31% 30.22 in 10.0 mi Calm Calm - N/A   Clear
2:15 AM 44.6 °F - 14.0 °F 29% 30.22 in 10.0 mi Calm Calm - N/A   Clear
2:35 AM 44.6 °F - 10.4 °F 25% 30.22 in 10.0 mi Calm Calm - N/A   Clear
2:55 AM 44.6 °F - 8.6 °F 23% 30.21 in 10.0 mi Calm Calm - N/A   Clear
3:15 AM 41.0 °F - 10.4 °F 29% 30.21 in 10.0 mi Calm Calm - N/A   Clear
3:35 AM 41.0 °F - 10.4 °F 29% 30.21 in 10.0 mi Calm Calm - N/A   Clear
3:55 AM 41.0 °F - 12.2 °F 31% 30.21 in 10.0 mi Calm Calm - N/A   Clear
4:15 AM 42.8 °F - 14.0 °F 31% 30.21 in 10.0 mi Calm Calm - N/A   Clear
4:35 AM 44.6 °F - 14.0 °F 29% 30.21 in 10.0 mi Calm Calm - N/A   Clear
4:55 AM 46.4 °F - 12.2 °F 25% 30.22 in 10.0 mi Calm Calm - N/A   Clear
5:15 AM 46.4 °F - 10.4 °F 23% 30.22 in 10.0 mi Calm Calm - N/A   Clear
5:35 AM 44.6 °F - 12.2 °F 27% 30.23 in 10.0 mi Calm Calm - N/A   Clear
5:55 AM 53.6 °F - 17.6 °F 24% 30.24 in 10.0 mi East 4.6 mph - N/A   Clear
6:15 AM 62.6 °F - 19.4 °F 19% 30.25 in 10.0 mi East 5.8 mph 16.1 mph N/A   Clear
6:35 AM 64.4 °F - 21.2 °F 19% 30.25 in 10.0 mi SE 4.6 mph - N/A   Clear
6:55 AM 66.2 °F - 26.6 °F 23% 30.25 in 10.0 mi SE 10.4 mph 21.9 mph N/A   Clear
7:15 AM 68.0 °F - 28.4 °F 23% 30.26 in 10.0 mi SE 11.5 mph 21.9 mph N/A   Clear
7:35 AM 69.8 °F - 26.6 °F 20% 30.26 in 10.0 mi SE 11.5 mph 18.4 mph N/A   Clear
8:15 AM 71.6 °F - 28.4 °F 20% 30.27 in 10.0 mi SSE 8.1 mph - N/A   Clear
8:35 AM 71.6 °F - 26.6 °F 19% 30.27 in 10.0 mi SSE 6.9 mph - N/A   Clear
8:55 AM 71.6 °F - 26.6 °F 19% 30.27 in 10.0 mi SSE 4.6 mph - N/A   Clear
9:15 AM 71.6 °F - 23.0 °F 16% 30.28 in 10.0 mi ESE 8.1 mph - N/A   Clear
9:35 AM 73.4 °F - 23.0 °F 15% 30.27 in 10.0 mi ESE 9.2 mph - N/A   Clear
9:55 AM 73.4 °F - 21.2 °F 14% 30.27 in 10.0 mi ESE 4.6 mph 16.1 mph N/A   Clear
10:15 AM 75.2 °F - 21.2 °F 13% 30.27 in 10.0 mi East 9.2 mph 23.0 mph N/A   Clear
10:35 AM 75.2 °F - 19.4 °F 12% 30.27 in 10.0 mi East 8.1 mph 16.1 mph N/A   Clear
10:55 AM 77.0 °F - 19.4 °F 12% 30.27 in 10.0 mi South 3.5 mph - N/A   Clear
11:15 AM 77.0 °F - 21.2 °F 12% 30.27 in 10.0 mi SSW 9.2 mph 17.3 mph N/A   Clear
11:35 AM 77.0 °F - 19.4 °F 12% 30.27 in 10.0 mi South 11.5 mph 18.4 mph N/A   Clear
11:55 AM 77.0 °F - 21.2 °F 12% 30.27 in 10.0 mi South 8.1 mph 19.6 mph N/A   Clear
12:15 PM 77.0 °F - 21.2 °F 12% 30.28 in 10.0 mi South 9.2 mph - N/A   Clear
12:35 PM 77.0 °F - 23.0 °F 13% 30.27 in 10.0 mi South 13.8 mph 19.6 mph N/A   Clear
12:55 PM 78.8 °F - 23.0 °F 13% 30.26 in 10.0 mi SW 5.8 mph - N/A   Clear
1:15 PM 77.0 °F - 23.0 °F 13% 30.27 in 10.0 mi South 11.5 mph 23.0 mph N/A   Clear
1:55 PM 77.0 °F - 23.0 °F 13% 30.25 in 10.0 mi WSW 15.0 mph 18.4 mph N/A   Clear
2:15 PM 78.8 °F - 23.0 °F 13% 30.25 in 10.0 mi SSW 8.1 mph - N/A   Clear
2:35 PM 78.8 °F - 24.8 °F 14% 30.25 in 10.0 mi SSW 9.2 mph 19.6 mph N/A   Clear
2:55 PM 78.8 °F - 26.6 °F 15% 30.25 in 10.0 mi WSW 6.9 mph - N/A   Clear
3:15 PM 78.8 °F - 26.6 °F 15% 30.25 in 10.0 mi South 5.8 mph 16.1 mph N/A   Clear
3:35 PM 77.0 °F - 26.6 °F 16% 30.24 in 10.0 mi SW 8.1 mph - N/A   Clear
3:55 PM 77.0 °F - 26.6 °F 16% 30.23 in 10.0 mi WSW 10.4 mph - N/A   Clear
4:15 PM 77.0 °F - 26.6 °F 16% 30.23 in 10.0 mi SSW 9.2 mph 16.1 mph N/A   Clear
4:35 PM 77.0 °F - 26.6 °F 16% 30.23 in 10.0 mi WSW 10.4 mph - N/A   Clear
4:55 PM 77.0 °F - 26.6 °F 16% 30.23 in 10.0 mi SW 9.2 mph 17.3 mph N/A   Clear
5:15 PM 77.0 °F - 28.4 °F 17% 30.22 in 10.0 mi SSW 5.8 mph - N/A   Clear
5:35 PM 75.2 °F - 30.2 °F 19% 30.22 in 10.0 mi West 9.2 mph - N/A   Clear
5:55 PM 75.2 °F - 28.4 °F 18% 30.22 in 10.0 mi WSW 9.2 mph - N/A   Clear
6:15 PM 73.4 °F - 26.6 °F 18% 30.22 in 10.0 mi SSW 6.9 mph 16.1 mph N/A   Clear
6:35 PM 73.4 °F - 26.6 °F 18% 30.22 in 10.0 mi SW 9.2 mph 16.1 mph N/A   Clear
6:55 PM 71.6 °F - 23.0 °F 16% 30.23 in 10.0 mi SW 9.2 mph 17.3 mph N/A   Clear
7:15 PM 71.6 °F - 28.4 °F 20% 30.23 in 10.0 mi West 10.4 mph - N/A   Clear
7:35 PM 69.8 °F - 26.6 °F 20% 30.23 in 10.0 mi West 10.4 mph - N/A   Clear
7:55 PM 68.0 °F - 24.8 °F 20% 30.23 in 10.0 mi West 9.2 mph - N/A   Clear
8:15 PM 68.0 °F - 26.6 °F 21% 30.23 in 10.0 mi SW 3.5 mph - N/A   Clear
8:35 PM 64.4 °F - 26.6 °F 24% 30.23 in 10.0 mi WSW 4.6 mph - N/A   Clear
8:55 PM 62.6 °F - 28.4 °F 27% 30.23 in 10.0 mi SW 3.5 mph - N/A   Clear
9:35 PM 59.0 °F - 30.2 °F 34% 30.23 in 10.0 mi WSW 3.5 mph - N/A   Clear
9:55 PM 59.0 °F - 32.0 °F 36% 30.23 in 10.0 mi WSW 4.6 mph - N/A   Clear
10:15 PM 59.0 °F - 32.0 °F 36% 30.23 in 10.0 mi WSW 3.5 mph - N/A   Clear
10:35 PM 57.2 °F - 32.0 °F 38% 30.23 in 10.0 mi West 4.6 mph - N/A   Clear
10:55 PM 59.0 °F - 32.0 °F 36% 30.23 in 10.0 mi West 9.2 mph - N/A   Clear
11:15 PM 59.0 °F - 32.0 °F 36% 30.23 in 10.0 mi SW 4.6 mph - N/A   Clear
11:35 PM 59.0 °F - 30.2 °F 34% 30.23 in 10.0 mi West 8.1 mph - N/A   Clear
11:55 PM 60.8 °F - 28.4 °F 29% 30.23 in 10.0 mi West 8.1 mph - N/A   Clear